Location: ActonStarParty
(42.4766°N, 71.4538°W)
Time: 01:43:00
(UTC-04:00)

Amateur Radio Satellites - All Passes

Search period start: 20 April 2014 01:13
Search period end: 21 April 2014 01:13
Location: ActonStarParty, 42.4766°N, 71.4538°W

Satellite Date Start Highest point End Downlink Frequencies (MHz)
Time Altitude Azimuth
SO-50 20 Apr 01:23:27 01:27:16 25° 247° (WSW) 01:31:07 436.795 FM
Uribyol 2 20 Apr 01:31:07 01:32:53 12° 88° (E) 01:34:39 436.500 FM
Oscar 10/S400 20 Apr 01:49:43 02:05:50 24° 130° (SE) 02:41:38 145.825 - 145.975 CW/USB, Beacon 145.810 USB
UOSAT-12 20 Apr 02:03:16 02:07:56 56° 52° (NE) 02:12:33 437.025 FM, 437.400 FM
Sapphire 20 Apr 02:07:52 02:12:25 27° 313° (NW) 02:17:00 437.095 MHz 1200 baud AX-25 AFSK
AO-27 20 Apr 02:09:26 02:13:49 27° 95° (E) 02:18:10 436.795 MHz FM
ITAMSAT 1 20 Apr 02:19:50 02:24:29 33° 97° (E) 02:29:07 435.822 SSB
AO-Echo 20 Apr 02:22:35 02:26:37 27° 95° (E) 02:30:35 ?
Oscar 19 20 Apr 02:23:19 02:28:31 69° 102° (ESE) 02:33:41 437.125 CW, 437.150 USB
KITSAT 1 20 Apr 02:24:46 02:32:27 49° 112° (ESE) 02:40:10 435.175 FM
Oscar 16 20 Apr 02:31:40 02:36:54 87° 104° (ESE) 02:42:07 437.025 USB, Beacon 2401.1428
OPAL 20 Apr 02:39:56 02:44:57 78° 255° (WSW) 02:50:05 ?
TMSAT-1 20 Apr 02:53:08 02:56:17 16° 90° (E) 02:59:25 436.925 FM
PCSat 20 Apr 02:55:20 02:58:04 14° 324° (NW) 03:00:49 145.825 MHz
Uribyol 2 20 Apr 03:07:48 03:13:00 84° 285° (WNW) 03:18:11 436.500 FM
Gurwin Techsat 1B 20 Apr 03:43:30 03:48:47 65° 102° (ESE) 03:54:03 435.225 FM
UOSAT-12 20 Apr 03:44:27 03:47:40 18° 250° (WSW) 03:50:52 437.025 FM, 437.400 FM
AO-27 20 Apr 03:48:39 03:53:25 38° 292° (WNW) 03:58:09 436.795 MHz FM
ITAMSAT 1 20 Apr 03:59:24 04:03:55 32° 294° (WNW) 04:08:26 435.822 SSB
AO-Echo 20 Apr 04:01:11 04:05:26 32° 292° (WNW) 04:09:36 ?
Oscar 19 20 Apr 04:04:04 04:07:18 17° 299° (WNW) 04:10:31 437.125 CW, 437.150 USB
Oscar 16 20 Apr 04:13:06 04:15:31 13° 302° (WNW) 04:17:57 437.025 USB, Beacon 2401.1428
Uosat F 20 Apr 04:19:40 04:24:16 35° 97° (E) 04:28:49 435.120 FM
KITSAT 1 20 Apr 04:20:18 04:27:57 44° 313° (NW) 04:35:40 435.175 FM
TMSAT-1 20 Apr 04:31:25 04:36:41 67° 287° (WNW) 04:41:55 436.925 FM
AO-40 20 Apr 04:45:06 10:01:21 35° 180° (S) 17:10:22 Beacon 2401.320
Uribyol 2 20 Apr 04:49:48 04:51:40 12° 303° (WNW) 04:53:32 436.500 FM
AO-7 20 Apr 04:50:54 04:58:50 46° 100° (E) 05:06:43 29.400 - 29.500 MHz
JAS-1B 20 Apr 04:52:45 04:58:27 83° 104° (ESE) 05:04:23 435.800 - 435.900 CW/SSB
STRAND 1 20 Apr 05:20:42 05:24:13 19° 62° (ENE) 05:27:45 ?
Gurwin Techsat 1B 20 Apr 05:24:43 05:28:14 18° 299° (WNW) 05:31:44 435.225 FM
RS-15 20 Apr 05:35:22 05:44:39 31° 105° (ESE) 05:53:39 29.354 - 29.394 USB, Beacon 29.352 USB
Uosat F 20 Apr 05:58:42 06:02:55 28° 294° (WNW) 06:07:07 435.120 FM
KITSAT 1 20 Apr 06:21:08 06:25:52 16° 339° (NNW) 06:30:36 435.175 FM
MaSat-1 20 Apr 06:37:30 06:40:21 46° 62° (ENE) 06:43:42 437.345 MHz
Hamsat 20 Apr 06:42:28 06:46:40 46° 99° (E) 06:50:52 145.90 MHz
AO-7 20 Apr 06:43:52 06:51:32 43° 299° (WNW) 06:59:12 29.400 - 29.500 MHz
JAS-1B 20 Apr 06:45:38 06:48:25 14° 304° (WNW) 06:51:13 435.800 - 435.900 CW/SSB
STRAND 1 20 Apr 06:57:57 07:02:58 57° 259° (W) 07:08:01 ?
Sapphire 20 Apr 07:29:55 07:31:12 11° 32° (NNE) 07:32:30 437.095 MHz 1200 baud AX-25 AFSK
JAS-2 20 Apr 07:32:24 07:37:37 47° 100° (E) 07:43:20 435.800 - 435.900 CW/SSB, 435.910 FM
SO-67 20 Apr 07:40:47 07:44:04 36° 98° (E) 07:47:18 435.3500 MHz FM
RS-15 20 Apr 07:44:40 07:55:59 76° 306° (NW) 08:07:00 29.354 - 29.394 USB, Beacon 29.352 USB
PCSat 20 Apr 08:12:57 08:17:00 21° 43° (NE) 08:21:01 145.825 MHz
Hamsat 20 Apr 08:19:26 08:22:18 18° 295° (WNW) 08:25:12 145.90 MHz
KITSAT 1 20 Apr 08:21:46 08:25:27 13° 11° (N) 08:29:07 435.175 FM
HO-68 20 Apr 08:34:05 08:38:22 16° 89° (E) 08:42:37 435.675 MHz FM
AO-7 20 Apr 08:41:21 08:42:07 10° 322° (NW) 08:42:54 29.400 - 29.500 MHz
Sapphire 20 Apr 09:10:47 09:16:02 48° 54° (NE) 09:21:15 437.095 MHz 1200 baud AX-25 AFSK
SO-67 20 Apr 09:15:02 09:16:54 14° 294° (WNW) 09:18:46 435.3500 MHz FM
JAS-2 20 Apr 09:18:15 09:22:32 25° 295° (WNW) 09:27:06 435.800 - 435.900 CW/SSB, 435.910 FM
PCSat 20 Apr 09:55:34 10:00:59 73° 243° (WSW) 10:06:22 145.825 MHz
Oscar 11 20 Apr 09:56:35 10:00:20 28° 96° (E) 10:04:04 145.825 FM, Beacon 2401.500 USB
PANSAT 20 Apr 09:56:51 09:57:13 10° 179° (S) 09:57:35 not established
RS-15 20 Apr 10:01:12 10:10:29 29° 334° (NNW) 10:19:41 29.354 - 29.394 USB, Beacon 29.352 USB
KITSAT 1 20 Apr 10:17:04 10:24:04 30° 40° (NE) 10:31:00 435.175 FM
HO-68 20 Apr 10:19:43 10:26:56 89° 287° (WNW) 10:34:08 435.675 MHz FM
Sapphire 20 Apr 10:54:47 10:59:10 26° 252° (WSW) 11:03:31 437.095 MHz 1200 baud AX-25 AFSK
Saudisat 1A 20 Apr 11:07:50 11:12:18 84° 123° (ESE) 11:16:48 436.775 MHz
FUNcube-1 20 Apr 11:24:46 11:29:03 82° 103° (ESE) 11:33:24 145.950 - 145.970 MHz USB
Oscar 11 20 Apr 11:32:46 11:36:28 28° 292° (WNW) 11:40:09 145.825 FM, Beacon 2401.500 USB
Oscar 19 20 Apr 12:04:40 12:07:21 15° 59° (ENE) 12:10:04 437.125 CW, 437.150 USB
HO-68 20 Apr 12:08:57 12:13:42 19° 306° (NW) 12:18:27 435.675 MHz FM
KITSAT 1 20 Apr 12:12:11 12:20:17 78° 242° (WSW) 12:28:19 435.175 FM
Oscar 16 20 Apr 12:12:16 12:15:40 18° 61° (ENE) 12:19:05 437.025 USB, Beacon 2401.1428
RS-15 20 Apr 12:19:32 12:27:45 23° 10° (N) 12:35:58 29.354 - 29.394 USB, Beacon 29.352 USB
Uribyol 2 20 Apr 12:48:48 12:52:34 21° 63° (ENE) 12:56:20 436.500 FM
Saudisat 1A 20 Apr 12:49:43 12:52:30 16° 322° (NW) 12:55:17 436.775 MHz
FUNcube-1 20 Apr 13:04:26 13:04:51 10° 299° (WNW) 13:05:17 145.950 - 145.970 MHz USB
AO-27 20 Apr 13:28:07 13:33:01 44° 70° (ENE) 13:37:56 436.795 MHz FM
Gurwin Techsat 1B 20 Apr 13:28:21 13:31:19 15° 59° (ENE) 13:34:17 435.225 FM
AO-Echo 20 Apr 13:35:37 13:40:29 41° 70° (ENE) 13:45:15 ?
ITAMSAT 1 20 Apr 13:38:24 13:43:26 54° 71° (ENE) 13:48:29 435.822 SSB
Oscar 19 20 Apr 13:40:53 13:46:01 80° 257° (WSW) 13:51:13 437.125 CW, 437.150 USB
Oscar 16 20 Apr 13:49:27 13:54:31 62° 259° (WSW) 13:59:39 437.025 USB, Beacon 2401.1428
JAS-1B 20 Apr 13:51:25 13:55:15 15° 57° (ENE) 13:58:48 435.800 - 435.900 CW/SSB
AO-7 20 Apr 14:02:47 14:07:16 16° 45° (NE) 14:11:44 29.400 - 29.500 MHz
KITSAT 1 20 Apr 14:10:12 14:14:20 15° 261° (W) 14:18:28 435.175 FM
TMSAT-1 20 Apr 14:14:10 14:18:33 27° 65° (ENE) 14:22:57 436.925 FM
Uribyol 2 20 Apr 14:26:38 14:31:39 53° 260° (W) 14:36:43 436.500 FM
RS-15 20 Apr 14:33:19 14:43:47 47° 42° (NE) 14:54:23 29.354 - 29.394 USB, Beacon 29.352 USB
OPAL 20 Apr 14:49:39 14:54:01 26° 97° (E) 14:58:20 ?
ISS 20 Apr 15:01:04 15:04:19 51° 141° (SE) 15:07:35 145.800 FM
Gurwin Techsat 1B 20 Apr 15:05:18 15:10:37 78° 257° (WSW) 15:15:57 435.225 FM
AO-27 20 Apr 15:08:38 15:12:43 23° 266° (W) 15:16:49 436.795 MHz FM
AO-Echo 20 Apr 15:15:03 15:19:21 26° 265° (W) 15:23:35 ?
ITAMSAT 1 20 Apr 15:19:38 15:23:15 19° 268° (W) 15:26:54 435.822 SSB
Uosat F 20 Apr 15:33:28 15:38:21 53° 71° (ENE) 15:43:14 435.120 FM
JAS-1B 20 Apr 15:37:03 15:45:07 78° 73° (ENE) 15:51:49 435.800 - 435.900 CW/SSB
SO-50 20 Apr 15:38:17 15:42:45 89° 300° (WNW) 15:47:18 436.795 FM
Oscar 10/S400 20 Apr 15:48:52 16:02:21 10° 277° (W) 16:17:02 145.825 - 145.975 CW/USB, Beacon 145.810 USB
AO-7 20 Apr 15:50:21 15:58:29 65° 67° (ENE) 16:06:39 29.400 - 29.500 MHz
TMSAT-1 20 Apr 15:53:20 15:58:17 40° 262° (W) 16:03:16 436.925 FM
UOSAT-12 20 Apr 16:17:33 16:19:49 14° 108° (ESE) 16:22:06 437.025 FM, 437.400 FM
OPAL 20 Apr 16:28:07 16:33:00 41° 293° (WNW) 16:37:51 ?
ISS 20 Apr 16:38:14 16:41:12 29° 339° (NNW) 16:44:12 145.800 FM
RS-15 20 Apr 16:45:51 16:56:27 58° 246° (WSW) 17:07:21 29.354 - 29.394 USB, Beacon 29.352 USB
Uosat F 20 Apr 17:14:01 17:17:27 18° 268° (W) 17:20:54 435.120 FM
SO-50 20 Apr 17:21:23 17:24:00 15° 323° (NW) 17:26:39 436.795 FM
JAS-1B 20 Apr 17:30:40 17:36:06 20° 267° (W) 17:41:01 435.800 - 435.900 CW/SSB
Hamsat 20 Apr 17:36:46 17:40:35 35° 70° (ENE) 17:44:28 145.90 MHz
AO-7 20 Apr 17:44:54 17:51:47 29° 265° (W) 17:58:43 29.400 - 29.500 MHz
JAS-2 20 Apr 17:47:17 17:51:21 21° 64° (ENE) 17:55:14 435.800 - 435.900 CW/SSB, 435.910 FM
UOSAT-12 20 Apr 17:54:48 17:59:21 71° 305° (NW) 18:04:01 437.025 FM, 437.400 FM
Saudisat 1A 20 Apr 17:56:05 17:58:20 14° 36° (NE) 18:00:34 436.775 MHz
SO-67 20 Apr 18:16:21 18:18:25 15° 67° (ENE) 18:20:29 435.3500 MHz FM
ISS 20 Apr 18:16:26 18:18:44 17° 359° (N) 18:21:01 145.800 FM
HO-68 20 Apr 19:05:06 19:08:59 16° 51° (NE) 19:12:51 435.675 MHz FM
RS-15 20 Apr 19:05:30 19:06:15 10° 266° (W) 19:07:00 29.354 - 29.394 USB, Beacon 29.352 USB
STRAND 1 20 Apr 19:07:56 19:12:49 45° 99° (E) 19:17:41 ?
Hamsat 20 Apr 19:13:34 19:16:41 20° 267° (W) 19:19:50 145.90 MHz
JAS-2 20 Apr 19:30:29 19:36:10 54° 259° (W) 19:41:24 435.800 - 435.900 CW/SSB, 435.910 FM
Saudisat 1A 20 Apr 19:34:15 19:38:41 79° 56° (NE) 19:43:03 436.775 MHz
UOSAT-12 20 Apr 19:38:04 19:40:23 14° 326° (NW) 19:42:43 437.025 FM, 437.400 FM
SO-67 20 Apr 19:48:07 19:51:18 33° 263° (W) 19:54:30 435.3500 MHz FM
ISS 20 Apr 19:53:23 19:56:18 26° 19° (NNE) 19:59:12 145.800 FM
MaSat-1 20 Apr 20:42:28 20:44:26 17° 111° (ESE) 20:46:16 437.345 MHz
STRAND 1 20 Apr 20:47:46 20:51:44 23° 296° (WNW) 20:55:41 ?
HO-68 20 Apr 20:48:24 20:55:29 74° 70° (ENE) 21:02:38 435.675 MHz FM
Oscar 11 20 Apr 20:52:39 20:56:08 24° 67° (ENE) 20:59:38 145.825 FM, Beacon 2401.500 USB
Saudisat 1A 20 Apr 21:16:24 21:17:37 11° 253° (WSW) 21:18:50 436.775 MHz
ISS 20 Apr 21:29:55 21:33:15 63° 218° (SW) 21:36:34 145.800 FM
MaSat-1 20 Apr 22:21:00 22:22:45 15° 303° (WNW) 22:24:24 437.345 MHz
FUNcube-1 20 Apr 22:22:04 22:26:15 71° 75° (ENE) 22:30:24 145.950 - 145.970 MHz USB
Oscar 11 20 Apr 22:28:23 22:32:12 31° 264° (W) 22:36:03 145.825 FM, Beacon 2401.500 USB
SO-50 20 Apr 22:29:51 22:32:49 17° 38° (NE) 22:35:49 436.795 FM
HO-68 20 Apr 22:38:41 22:43:49 21° 268° (W) 22:49:01 435.675 MHz FM
PCSat 20 Apr 22:58:13 23:00:26 13° 102° (ESE) 23:02:40 145.825 MHz
Sapphire 20 Apr 23:53:28 23:58:25 37° 111° (ESE) 00:03:22 437.095 MHz 1200 baud AX-25 AFSK
SO-50 21 Apr 00:09:20 00:14:00 85° 237° (WSW) 00:18:43 436.795 FM
PCSat 21 Apr 00:37:38 00:43:02 88° 299° (WNW) 00:48:30 145.825 MHz
UOSAT-12 21 Apr 00:44:31 00:47:58 20° 40° (NE) 00:51:23 437.025 FM, 437.400 FM
KITSAT 1 21 Apr 00:51:07 00:54:28 13° 98° (E) 00:57:48 435.175 FM
